Wind_Speed
26 25 24 24 23 23 25 25 25 25 24 23 21 22 23 23 23 23 24 23 23 24 24 22 22 22 22 22 21 21 21 21 21 21 22 22 22 23 23 23 23 23 23 23
27 27 27 27 25 24 25 25 25 26 26 24 24 24 23 23 24 24 24 24 24 24 25 24 23 22 22 22 21 22 22 22 22 23 23 23 23 23 23 24 24 24 24 24
28 27 27 28 27 27 27 27 27 27 27 26 25 25 23 24 24 24 24 25 25 25 25 23 23 23 22 23 22 22 23 23 23 22 22 22 23 23 23 24 24 24 24 25
27 27 28 26 25 26 28 27 27 28 28 28 25 25 25 25 25 25 25 24 24 25 25 23 23 23 23 23 22 22 22 23 23 23 23 23 23 23 24 24 24 24 24 25
27 27 28 26 25 25 27 29 27 27 27 27 28 27 25 24 23 24 23 23 24 24 23 23 23 24 24 24 23 23 23 23 24 24 23 23 23 23 23 24 24 24 24 25
27 28 29 28 26 25 25 27 27 27 27 27 27 25 26 25 24 24 25 24 24 23 23 24 24 24 24 25 25 24 24 24 24 24 23 23 24 24 24 25 25 25 25 25
28 28 29 28 26 25 26 27 26 28 28 27 28 27 27 27 26 26 26 25 25 25 24 25 26 25 25 25 26 26 25 25 25 25 25 24 25 25 25 26 26 26 26 27
28 29 30 28 27 27 27 28 29 29 29 28 29 30 30 29 27 26 26 25 25 26 26 27 27 28 27 27 27 26 26 26 26 26 26 26 26 26 26 27 27 28 27 27
28 30 29 27 28 30 29 29 30 30 29 30 30 30 31 30 29 29 28 27 27 28 28 29 29 29 28 28 27 27 28 28 28 28 28 28 27 27 28 28 28 28 27 28
29 29 30 31 31 30 30 30 31 31 30 30 32 32 31 31 31 30 29 29 29 30 30 30 30 30 29 27 27 28 29 29 29 29 29 29 28 28 29 28 28 29 30 30
30 30 31 32 31 30 29 30 31 32 32 32 32 32 31 31 31 31 30 31 31 31 31 30 30 30 30 30 28 29 30 30 31 30 30 30 30 30 29 29 30 30 31 31
29 30 32 32 31 31 32 31 31 32 32 31 30 30 30 31 31 31 31 32 31 30 31 31 31 31 31 31 29 30 31 31 31 31 31 32 32 31 31 31 31 31 31 32
29 29 30 32 32 33 32 32 31 31 31 31 31 29 29 29 30 31 31 31 30 30 30 31 32 32 32 31 31 31 32 31 30 31 31 31 32 32 31 31 31 31 31 31
27 28 28 27 29 30 31 31 31 30 31 31 30 29 29 29 29 29 29 30 30 30 30 31 32 32 31 31 32 32 31 30 30 30 30 31 30 31 31 31 31 31 31 30
27 27 27 26 27 28 28 29 29 30 30 30 28 28 29 29 28 28 28 28 29 30 30 31 31 31 31 31 31 30 30 30 30 30 30 30 30 30 31 31 31 31 30 30
27 26 25 25 25 25 25 26 26 26 25 26 26 27 28 28 28 29 28 27 28 29 29 30 31 31 32 31 30 30 30 30 30 29 29 30 30 30 30 31 30 30 30 29
27 27 25 24 24 23 23 24 25 24 25 25 26 26 26 27 28 28 28 28 28 28 29 30 30 30 30 30 30 30 29 29 29 29 30 30 30 30 30 30 30 29 29 29
25 26 25 24 23 22 23 24 24 24 25 26 25 26 26 26 27 28 28 28 27 28 28 29 29 28 27 27 27 28 28 29 28 28 28 29 29 29 29 29 29 28 29 29
24 25 24 24 24 25 24 24 24 25 25 25 25 25 25 26 26 27 27 28 28 28 28 26 25 24 25 25 25 25 26 26 28 28 28 28 28 29 29 28 29 28 29 29
23 23 24 25 24 24 23 23 23 23 24 24 25 25 25 25 26 27 27 27 27 26 24 24 24 24 24 24 24 24 25 26 27 27 27 28 28 28 29 29 29 29 29 29
21 22 22 23 23 23 23 23 23 23 24 24 25 26 26 26 26 26 26 26 24 23 22 23 23 23 23 23 23 24 25 26 26 27 27 28 28 28 28 28 29 29 29 29
20 20 20 20 21 22 22 22 23 23 23 24 24 24 24 24 24 24 23 23 23 22 23 23 23 23 23 22 23 23 24 24 25 25 26 27 27 27 27 27 28 28 28 28
18 19 19 19 20 21 21 22 21 21 21 21 21 20 20 20 20 20 20 20 21 23 23 23 23 23 23 22 22 23 23 24 24 25 25 25 26 26 27 27 27 27 27 27
17 18 18 18 18 18 18 18 17 18 19 19 18 18 18 19 19 19 20 20 21 22 22 22 22 22 22 22 22 22 23 23 23 24 24 24 25 25 25 26 26 26 26 26
15 15 15 15 15 15 15 15 15 16 17 17 17 18 18 18 19 20 20 20 20 21 21 21 21 21 21 21 21 22 23 23 23 23 23 24 24 24 25 26 26 26 26 26
12 13 14 14 14 14 14 15 15 15 15 16 17 17 18 18 19 19 19 19 19 20 20 21 21 21 21 22 22 22 23 23 23 24 24 24 24 25 25 25 25 25 25 25
11 11 11 11 12 12 13 14 15 15 16 16 16 17 17 17 18 19 19 19 19 20 20 21 21 22 22 22 22 22 23 23 23 24 24 24 24 24 25 25 26 26 25 25
Wind_Direction
247 245 242 245 246 247 247 247 252 258 262 263 263 269 273 273 274 276 277 278 281 282 283 286 289 290 290 291 291 292 293 293 291 292 290 290 291 292 293 295 296 296 297 297
249 247 246 247 247 249 252 249 251 256 261 265 263 265 267 269 271 273 276 278 280 281 281 283 286 286 288 288 289 291 294 295 293 293 292 290 292 293 293 294 296 297 298 299
251 251 250 248 247 248 250 250 252 253 256 258 258 261 263 265 268 270 274 277 278 281 282 280 282 283 284 286 288 290 292 294 295 293 292 293 292 293 293 295 295 296 298 298
252 252 252 251 249 248 250 250 250 254 255 255 258 262 261 262 266 269 270 273 277 279 279 280 280 282 283 284 286 289 291 293 294 295 294 293 293 293 294 295 296 297 299 300
251 254 256 252 248 249 251 252 251 252 256 257 258 260 263 265 269 269 268 271 276 277 278 280 280 280 281 282 284 287 289 290 292 294 294 293 293 294 295 296 297 299 300 301
250 253 253 252 250 253 251 250 250 251 254 256 260 260 261 266 269 270 269 275 276 278 278 278 279 280 280 282 284 286 288 289 290 292 292 292 293 294 296 298 298 298 299 300
249 250 253 252 251 254 251 252 252 252 255 257 259 260 262 265 268 269 270 275 276 277 276 277 279 280 280 281 283 284 285 287 288 290 291 291 293 294 295 297 298 298 299 300
248 249 249 250 250 251 252 252 253 254 256 258 262 262 262 265 268 271 271 274 276 275 274 274 278 280 280 280 281 282 284 285 286 288 289 290 292 293 294 295 296 298 299 299
249 250 250 250 250 250 252 253 253 256 257 257 260 262 263 265 267 270 271 273 273 274 275 274 276 279 280 280 280 281 283 285 286 287 288 289 291 293 294 295 296 297 297 298
246 249 249 250 250 248 250 254 255 255 257 258 261 263 265 266 269 271 272 272 273 274 275 274 275 278 279 279 280 281 282 283 284 286 287 289 291 292 293 294 295 297 298 299
247 248 248 250 251 250 252 255 258 257 258 260 263 264 265 267 269 269 270 271 272 272 274 275 276 278 279 280 279 280 282 284 285 285 286 288 289 291 291 292 294 295 297 298
252 250 249 250 252 252 255 256 257 257 257 261 264 266 267 267 269 270 272 273 272 272 273 274 275 277 279 280 279 280 282 284 285 285 286 287 288 288 289 291 293 294 296 298
249 247 249 249 250 252 255 257 257 258 259 262 264 265 266 268 269 270 271 273 273 272 273 274 276 277 279 280 280 281 282 282 284 285 286 287 287 287 287 289 291 293 294 296
249 249 250 251 251 253 255 259 260 260 260 261 262 263 265 268 270 271 272 274 275 274 276 277 277 278 278 278 280 280 280 281 283 284 285 286 287 288 288 289 291 292 293 294
250 251 251 252 253 255 257 258 259 259 260 261 262 264 266 269 272 273 273 274 275 275 277 278 278 278 277 277 279 280 280 281 283 284 285 286 287 288 288 289 290 292 292 292
249 251 250 250 253 254 254 256 259 259 261 263 264 266 269 270 272 274 275 276 275 277 278 280 278 277 277 276 277 278 280 280 281 282 284 286 288 289 289 289 289 290 292 292
250 252 255 253 254 254 254 254 255 261 266 269 269 269 270 272 273 273 275 277 278 279 279 280 279 276 275 276 276 277 277 279 279 280 282 284 286 288 289 290 290 290 291 292
251 253 255 257 257 255 255 255 257 261 265 267 270 269 271 273 274 275 276 276 278 280 282 283 281 278 277 278 278 277 277 279 280 281 282 283 284 287 289 290 291 292 292 291
250 252 253 254 256 256 258 258 260 262 265 266 268 270 271 273 276 277 278 277 278 280 281 281 282 283 281 282 282 282 282 283 283 283 283 284 285 286 288 290 290 290 292 292
248 250 252 253 256 258 259 261 262 263 264 266 268 270 272 273 275 277 279 279 279 281 280 279 280 282 284 283 282 283 284 285 285 284 285 287 288 289 289 290 290 290 291 292
249 248 250 252 254 257 260 261 263 264 265 267 270 273 274 274 275 278 279 280 281 281 282 284 285 285 285 283 283 285 286 287 286 286 287 288 288 289 289 289 289 289 291 292
248 249 250 251 253 256 258 261 264 265 266 268 271 273 275 276 277 278 281 281 281 283 284 285 285 285 286 286 285 286 287 289 289 288 289 289 289 290 290 290 290 290 290 290
250 250 251 252 253 255 259 261 263 264 267 272 274 274 275 276 279 281 285 286 285 285 286 286 285 284 286 286 287 288 290 290 291 291 291 290 290 291 291 291 291 290 289 288
251 251 252 251 252 254 257 260 264 267 268 270 271 273 277 279 281 285 287 287 286 286 286 287 286 286 285 285 288 290 291 291 290 290 291 291 291 293 294 293 293 293 291 290
250 250 250 252 255 257 258 263 267 270 272 271 273 277 280 283 286 288 288 288 289 290 289 287 287 288 287 287 289 290 290 290 291 291 293 293 293 293 294 294 294 295 294 291
251 252 253 253 255 259 262 264 268 271 275 277 280 283 285 287 288 289 290 291 292 293 292 291 290 290 290 289 289 290 291 291 292 293 294 294 293 293 294 295 295 295 296 295
255 254 255 254 255 260 265 267 270 274 276 280 284 287 288 288 290 291 292 292 293 295 295 295 293 292 291 291 291 291 292 293 293 292 294 295 295 295 295 296 296 296 296 297
Height
5840 5844 5845 5847 5848 5850 5851 5852 5854 5854 5854 5854 5853 5853 5853 5852 5851 5851 5850 5849 5848 5847 5846 5845 5844 5843 5841 5840 5839 5838 5837 5835 5835 5833 5833 5831 5830 5829 5828 5826 5825 5824 5822 5821
5833 5835 5837 5839 5842 5844 5845 5846 5847 5847 5848 5848 5848 5847 5847 5846 5845 5845 5844 5843 5842 5841 5840 5840 5839 5838 5836 5835 5834 5833 5832 5831 5830 5828 5827 5826 5825 5824 5822 5821 5820 5818 5817 5815
5825 5827 5827 5830 5834 5836 5837 5839 5840 5840 5842 5840 5840 5840 5840 5839 5839 5839 5838 5836 5835 5835 5834 5834 5833 5832 5832 5830 5829 5828 5827 5826 5825 5823 5822 5820 5819 5818 5817 5815 5814 5812 5811 5809
5817 5819 5819 5825 5826 5827 5829 5830 5831 5831 5832 5832 5832 5832 5832 5832 5832 5831 5830 5829 5829 5828 5828 5827 5827 5827 5826 5825 5824 5823 5822 5821 5819 5818 5816 5815 5814 5812 5811 5809 5808 5806 5804 5803
5809 5810 5812 5816 5818 5819 5820 5821 5823 5823 5824 5825 5825 5825 5825 5824 5824 5823 5822 5822 5822 5822 5822 5822 5821 5821 5820 5819 5818 5817 5816 5815 5814 5812 5811 5809 5808 5807 5805 5804 5802 5800 5798 5796
5801 5803 5804 5809 5810 5810 5812 5813 5814 5815 5816 5817 5816 5817 5816 5816 5817 5817 5817 5816 5816 5816 5816 5815 5815 5815 5814 5813 5812 5811 5810 5809 5808 5806 5805 5804 5802 5801 5799 5797 5795 5794 5792 5790
5794 5795 5797 5800 5801 5804 5806 5806 5807 5807 5808 5809 5809 5809 5810 5810 5810 5810 5811 5810 5810 5810 5809 5809 5808 5808 5807 5806 5805 5805 5803 5802 5801 5800 5798 5797 5796 5794 5793 5791 5789 5787 5785 5783
5786 5788 5792 5792 5794 5796 5797 5798 5798 5799 5801 5801 5801 5801 5803 5803 5803 5803 5803 5804 5803 5803 5802 5802 5801 5800 5800 5799 5798 5797 5796 5795 5794 5793 5791 5790 5789 5787 5786 5784 5782 5780 5778 5775
5778 5781 5782 5784 5785 5786 5788 5789 5790 5792 5793 5794 5793 5793 5795 5796 5796 5796 5796 5796 5796 5795 5795 5794 5793 5793 5792 5791 5791 5789 5789 5788 5787 5786 5784 5783 5781 5780 5778 5777 5775 5773 5770 5767
5770 5772 5774 5775 5776 5777 5779 5781 5782 5784 5784 5785 5785 5786 5786 5787 5788 5788 5788 5788 5787 5787 5786 5786 5785 5785 5784 5783 5782 5781 5781 5780 5779 5778 5777 5775 5774 5772 5771 5769 5767 5765 5762 5760
5762 5765 5765 5766 5768 5769 5771 5773 5775 5775 5776 5776 5776 5776 5777 5778 5779 5778 5778 5779 5779 5778 5778 5777 5777 5777 5776 5775 5774 5773 5772 5771 5770 5769 5768 5767 5765 5764 5762 5761 5759 5757 5755 5752
5754 5756 5757 5759 5759 5761 5763 5765 5766 5767 5768 5767 5767 5768 5769 5770 5770 5770 5770 5770 5769 5769 5769 5768 5768 5768 5767 5766 5765 5764 5764 5763 5761 5760 5759 5758 5756 5755 5753 5752 5750 5748 5746 5744
5745 5746 5748 5750 5751 5753 5755 5756 5757 5757 5758 5759 5760 5761 5761 5761 5761 5762 5762 5761 5761 5760 5759 5759 5759 5759 5758 5757 5756 5755 5755 5753 5752 5751 5750 5749 5747 5746 5744 5743 5741 5739 5737 5735
5736 5738 5740 5741 5743 5745 5746 5748 5748 5748 5749 5750 5751 5752 5753 5753 5753 5753 5753 5753 5752 5751 5751 5750 5750 5750 5749 5748 5747 5747 5746 5745 5744 5743 5741 5740 5739 5737 5735 5733 5732 5730 5728 5726
5729 5731 5733 5734 5736 5737 5739 5740 5740 5740 5740 5742 5743 5744 5745 5745 5745 5745 5744 5744 5744 5743 5742 5742 5741 5741 5740 5739 5739 5738 5737 5736 5735 5734 5733 5731 5729 5728 5726 5724 5723 5721 5719 5717
5721 5723 5725 5727 5729 5731 5732 5732 5732 5732 5733 5734 5735 5737 5737 5737 5737 5737 5736 5736 5736 5735 5734 5733 5732 5731 5730 5730 5729 5729 5728 5727 5726 5725 5724 5722 5720 5719 5717 5715 5713 5712 5710 5709
5715 5717 5718 5720 5722 5724 5724 5725 5726 5726 5726 5727 5729 5729 5730 5730 5729 5729 5729 5728 5728 5727 5725 5724 5723 5722 5721 5721 5720 5719 5719 5718 5717 5716 5715 5713 5712 5710 5708 5706 5705 5703 5702 5700
5709 5711 5712 5714 5716 5717 5717 5718 5720 5721 5721 5722 5722 5722 5723 5722 5722 5722 5721 5721 5720 5719 5717 5716 5715 5713 5712 5712 5711 5710 5710 5709 5708 5707 5706 5705 5703 5701 5700 5698 5696 5695 5693 5691
5702 5704 5706 5708 5709 5710 5711 5712 5713 5714 5715 5715 5715 5715 5715 5715 5715 5714 5713 5713 5712 5711 5710 5708 5707 5706 5705 5704 5703 5702 5701 5701 5700 5699 5698 5696 5695 5693 5692 5690 5689 5687 5685 5683
5696 5698 5700 5701 5703 5704 5705 5706 5707 5707 5708 5708 5708 5708 5708 5708 5707 5707 5706 5705 5705 5703 5702 5701 5700 5699 5698 5697 5696 5695 5694 5693 5692 5691 5690 5688 5687 5685 5684 5682 5680 5679 5677 5675
5690 5692 5693 5695 5697 5698 5699 5700 5700 5701 5701 5701 5701 5701 5701 5700 5700 5699 5698 5697 5697 5695 5694 5694 5693 5692 5691 5690 5689 5688 5687 5685 5684 5683 5682 5680 5679 5677 5675 5674 5672 5671 5669 5667
5685 5686 5688 5690 5691 5692 5693 5694 5694 5694 5695 5695 5695 5694 5694 5693 5692 5692 5691 5690 5690 5689 5688 5687 5686 5685 5684 5683 5682 5681 5679 5678 5676 5675 5674 5672 5670 5669 5667 5666 5664 5662 5660 5659
5680 5682 5683 5684 5685 5686 5687 5688 5688 5688 5688 5689 5688 5688 5687 5687 5686 5686 5685 5684 5683 5682 5681 5680 5679 5678 5677 5676 5675 5674 5672 5671 5669 5668 5666 5665 5663 5661 5659 5658 5656 5654 5652 5650
5676 5677 5678 5679 5680 5681 5682 5682 5683 5683 5683 5683 5683 5683 5682 5682 5681 5680 5679 5678 5677 5676 5675 5674 5672 5671 5670 5669 5668 5667 5665 5664 5663 5661 5659 5658 5656 5654 5652 5650 5648 5646 5644 5642
5672 5673 5674 5675 5675 5676 5677 5677 5678 5678 5678 5678 5678 5678 5677 5676 5676 5675 5673 5672 5671 5670 5668 5667 5666 5665 5664 5663 5662 5660 5659 5657 5656 5654 5652 5650 5648 5646 5644 5642 5640 5638 5636 5634
5668 5669 5670 5671 5672 5672 5673 5674 5674 5674 5674 5674 5674 5673 5672 5671 5670 5669 5668 5667 5665 5664 5662 5661 5660 5658 5657 5656 5655 5654 5652 5651 5649 5647 5645 5643 5641 5639 5637 5635 5633 5631 5628 5626
5665 5666 5666 5667 5668 5668 5669 5670 5670 5670 5669 5669 5668 5668 5667 5666 5665 5664 5662 5661 5660 5658 5657 5655 5654 5652 5651 5650 5648 5647 5646 5644 5642 5640 5638 5636 5634 5632 5630 5628 5626 5623 5621 5619